STARLINK-34435

Last updated on Sat Jul 19 2025 00:02:07 GMT+0000 (Coordinated Universal Time)

1 64602U 25137J 25199.58335648 -.01536534 00000+0 -16376-1 0 9996 2 64602 53.1594 355.2883 0000982 108.5000 270.0055 15.66252981 4754
UTC large
Height (km)
Speed (km/s)
/
Latitude / Longitude
Inclination (degrees)
Orbital Period (minutes)
Azimuth
Elevation
Range (km)
Doppler Factor

Next 0 passes for location: London (51.5072 / 0.1276)

Sorry there are no passes over London.